Current weather by "City, St" or "zip code"  
 

Current Conditions: Statesboro, Statesboro-Bulloch County Airport, GA

Overcast


52.0 F

Last Updated on Oct 31 2020, 5:55 am EDT
Humidity: 68%
Wind Speed: NE 5.8 mph
Barometer 30.26 in
Dewpoint: 41.9 F
Visibility: 10.00 mi
Precip: --
Heat Index: NA
Wind Chill: 50 F
Current conditions at:

Statesboro, Statesboro-Bulloch County Airport, GA (KTBR)

Lat: 32.48306 Lon: 81.73722

Local Radar Image active severe weather and emergency alerts image image weather storm and storm spotter reports image weather observation monitoring service image
Local
Radar
Active
Alerts
Storm Reports Obs
Monitoring

Sign-up For Email & Text Message Weather Alert Notification Services



Advertise Here

Observation History for Statesboro, Statesboro-Bulloch County Airport, GA


Time Wind
(mph)
Vis
(mi)
Weather Precip (in) Temperature (F) Relative
Humidity
Wind
Chill
(F)
Heat
Index
(F)
Pressure
Air Dwpt altimeter
(in)
sea level
(mb)
Rmks
5:55 am EDT NE 5.8 10.00 Overcast -- 52.0 41.9 68% 50 NA 30.26 M
4:55 am EDT NE 4.6 10.00 Fair -- 53.0 42.3 68% 52 NA 30.24 M
3:55 am EDT NE 3.5 10.00 Fair -- 54.0 43.3 68% NA NA 30.23 M
2:55 am EDT NE 3.5 10.00 Fair -- 55.0 44.8 69% NA NA 30.22 M
2:35 am EDT NE 5.8 10.00 Fair -- 55.0 45.5 70% 54 NA 30.22 M
1:55 am EDT NE 4.6 10.00 Fair -- 56.0 46.4 71% 55 NA 30.20 M
12:55 am EDT N 0.0 10.00 Fair -- 57.0 46.9 70% NA NA 30.19 M
11:55 pm EDT NE 3.5 10.00 Fair -- 57.0 47.3 70% NA NA 30.19 M
10:55 pm EDT N 0.0 10.00 Fair -- 54.0 49.5 85% NA NA 30.17 M
9:55 pm EDT NE 3.5 10.00 Fair -- 57.0 49.3 75% NA NA 30.14 M
8:55 pm EDT N 0.0 10.00 Fair -- 55.0 52.2 89% NA NA 30.13 M
7:55 pm EDT N 0.0 10.00 Fair -- 58.0 52.7 82% NA NA 30.10 M
6:55 pm EDT N 0.0 10.00 Fair -- 62.0 53.6 74% NA NA 30.07 M
6:35 pm EDT N 0.0 10.00 Fair -- 66.0 52.7 62% NA NA 30.06 M
5:55 pm EDT N 6.9 10.00 Fair -- 71.0 48.6 45% NA NA 30.04 M
4:55 pm EDT N 8.1 10.00 Fair -- 73.0 48.4 41% NA NA 30.02 M
3:55 pm EDT N 5.8 10.00 Fair -- 73.0 48.7 42% NA NA 30.00 M
2:55 pm EDT N 8.1 10.00 Fair -- 72.0 49.1 45% NA NA 30.00 M
2:35 pm EDT N 10.4 10.00 Fair -- 71.0 49.1 46% NA NA 30.01 M
1:55 pm EDT NW 9.2 10.00 Fair -- 69.0 48.7 48% NA NA 30.02 M
1:35 pm EDT NW 9.2 10.00 Fair -- 69.0 49.1 50% NA NA 30.02 M
12:55 pm EDT N 10.4 G 18.4 10.00 Fair -- 67.0 48.2 51% NA NA 30.03 M
11:55 am EDT N 10.4 G 17.3 10.00 Fair -- 64.0 47.7 57% NA NA 30.04 M
11:35 am EDT N 10.4 G 17.3 10.00 Fair -- 63.0 47.1 57% 62 NA 30.04 M

Regional Weather Observation


Sylvania, Plantation Airpark, GA (KJYL)

Mostly Cloudy
53.0 F

Claxton Evans County Airport, GA (KCWV)

Fair
55.0 F

Swainsboro Emanuel County Airport, GA (KSBO)

Fair
50.0 F

Vidalia, Vidalia Municipal Airport, GA (KVDI)

Fair
54.0 F

Savannah-Hilton Head International Airport, GA (KSAV)

A Few Clouds
55.0 F

Hunter U. S. Army Airfield, GA (KSVN)

Fair
55.0 F